Shirley, NY

4:51 AM EDT on March 23, 2017 (GMT -0400)
Brookhaven

Weather History for KHWV - February, 2013

Change the Weather History Date:

Saturday, February 23, 2013

  Actual Average (KISP) Record (KISP)
Temperature  
Mean Temperature 39 °F -  
Max Temperature 41 °F 40 °F 61 °F (2012)
Min Temperature 36 °F 25 °F 10 °F (2015)
Degree Days  
Heating Degree Days 26    
Moisture  
Dew Point 35 °F    
Average Humidity 86    
Maximum Humidity 93    
Minimum Humidity 70    
Precipitation  
Precipitation 0.17 in - - ()
Sea Level Pressure  
Sea Level Pressure 30.08 in    
Wind  
Wind Speed 5 mph (ESE)    
Max Wind Speed 10 mph    
Max Gust Speed 21 mph    
Visibility 6 miles    
Events Rain    
Averages and records for this station are not official NWS values.
T = Trace of Precipitation, MM = Missing Value Source: NWS Daily Summary

Daily Weather History Graph

Daily Weather History Graph

Search for Another Location

Airport or City:

Trip Planner

Search our weather history database for the weather conditions in past years. The results will help you decide how hot, cold, wet, or windy it might be!

Date:

Astronomy

Feb. 23, 2013 Rise Set
Actual Time 6:34 AM EST 5:35 PM EST
Civil Twilight 6:06 AM EST 6:03 PM EST
Nautical Twilight 5:34 AM EST 6:35 PM EST
Astronomical Twilight 5:02 AM EST 7:07 PM EST
Moon 3:43 PM EST 4:55 AM EST
Length of Visible Light 11h 57m
Length of Day
11h 01m
Waxing Gibbous, 95% of the Moon is Illuminated
Feb 23
Waxing Gibbous
Feb 25
Full
Mar 4
Last Quarter
Mar 11
New
Mar 19
First Quarter

Hourly Weather History & Observations

Time (EST) Temp. Windchill Dew Point Humidity Pressure Visibility Wind Dir Wind Speed Gust Speed Precip Events Conditions
12:56 AM 37.0 °F 34.5 °F 28.9 °F 73% 30.29 in 10.0 mi Variable 3.5 mph - N/A   Overcast
1:36 AM 37.4 °F 32.8 °F 28.4 °F 70% 30.28 in 10.0 mi ESE 5.8 mph - 0.00 in   Overcast
1:56 AM 37.0 °F 34.5 °F 28.9 °F 73% 30.28 in 10.0 mi Variable 3.5 mph - 0.00 in   Overcast
2:56 AM 37.0 °F 33.3 °F 30.0 °F 76% 30.25 in 10.0 mi ESE 4.6 mph - N/A   Overcast
3:56 AM 37.0 °F 33.3 °F 30.0 °F 76% 30.23 in 10.0 mi ESE 4.6 mph - N/A   Overcast
4:56 AM 37.9 °F 34.4 °F 30.9 °F 76% 30.21 in 10.0 mi ESE 4.6 mph - N/A   Overcast
5:56 AM 37.9 °F 34.4 °F 32.0 °F 79% 30.20 in 10.0 mi Variable 4.6 mph - N/A   Overcast
6:56 AM 39.0 °F 35.7 °F 33.1 °F 79% 30.20 in 10.0 mi Variable 4.6 mph - N/A   Overcast
7:56 AM 39.0 °F 34.8 °F 35.1 °F 86% 30.18 in 10.0 mi Variable 5.8 mph - N/A   Overcast
8:56 AM 39.9 °F 37.8 °F 36.0 °F 86% 30.16 in 10.0 mi Variable 3.5 mph - N/A   Overcast
9:23 AM 41.0 °F 38.0 °F 35.6 °F 81% 30.15 in 10.0 mi Variable 4.6 mph - N/A   Overcast
9:56 AM 41.0 °F 36.4 °F 36.0 °F 82% 30.14 in 8.0 mi ESE 6.9 mph - N/A   Overcast
10:56 AM 41.0 °F 37.1 °F 37.0 °F 86% 30.11 in 10.0 mi ESE 5.8 mph - 0.00 in   Overcast
11:35 AM 41.0 °F 37.1 °F 37.4 °F 87% 30.10 in 2.0 mi Variable 5.8 mph - 0.01 in Rain Light Rain
11:42 AM 41.0 °F 36.4 °F 37.4 °F 87% 30.10 in 2.0 mi Variable 6.9 mph - 0.02 in Rain Light Rain
11:56 AM 41.0 °F 38.0 °F 37.9 °F 89% 30.09 in 2.0 mi Variable 4.6 mph - 0.02 in Rain Light Rain
12:11 PM 41.0 °F 34.7 °F 37.4 °F 87% 30.08 in 4.0 mi ESE 10.4 mph 16.1 mph 0.01 in Rain Light Rain
12:56 PM 41.0 °F 36.4 °F 39.0 °F 93% 30.05 in 6.0 mi Variable 6.9 mph 18.4 mph 0.02 in Rain Light Rain
1:56 PM 41.0 °F 35.2 °F 37.9 °F 89% 30.02 in 5.0 mi East 9.2 mph 20.7 mph 0.01 in Rain Light Rain
2:38 PM 39.2 °F 34.2 °F 37.4 °F 93% 30.02 in 2.0 mi ESE 6.9 mph 18.4 mph 0.02 in Rain Light Rain
2:56 PM 39.9 °F 33.9 °F 37.0 °F 89% 30.01 in 4.0 mi ESE 9.2 mph - 0.03 in Rain Light Rain
4:15 PM 39.2 °F 33.0 °F 35.6 °F 87% 29.98 in 4.0 mi East 9.2 mph - 0.01 in Rain Light Rain
4:56 PM 39.0 °F 35.7 °F 37.0 °F 93% 29.97 in 4.0 mi Variable 4.6 mph - 0.03 in Rain Light Rain
5:56 PM 37.9 °F 34.4 °F 36.0 °F 93% 29.95 in 2.5 mi Variable 4.6 mph - 0.01 in Rain Light Rain
6:30 PM 37.4 °F 34.9 °F 35.6 °F 93% 29.94 in 3.0 mi Variable 3.5 mph - 0.03 in Rain Light Rain
6:56 PM 37.0 °F 32.4 °F 35.1 °F 93% 29.94 in 4.0 mi Variable 5.8 mph - 0.04 in Rain Light Rain
7:56 PM 37.0 °F 32.4 °F 35.1 °F 93% 29.91 in 5.0 mi Variable 5.8 mph - 0.01 in   Overcast
8:56 PM 37.0 °F 32.4 °F 35.1 °F 93% 29.88 in 7.0 mi Variable 5.8 mph - N/A   Overcast
9:56 PM 37.0 °F 31.6 °F 35.1 °F 93% 29.83 in 5.0 mi Variable 6.9 mph - N/A   Overcast
11:56 PM 36.0 °F 30.3 °F 34.0 °F 93% 29.79 in 3.0 mi Variable 6.9 mph - N/A   Overcast